This is the latest recevied weather packets stored in our database for station/object KB1ZFK. If no packets are shown the sender has not sent any weather packets the latest 10 day(s).
| Time | Temp. | Humidity | Pressure | Rain* | Wind** | Luminosity | Snow |
|---|---|---|---|---|---|---|---|
| 1777577174 | 8.89° C | 97% | 1005.9 hPa | 0 mm | - | 79 W/m² | - |
| 1777576870 | 8.89° C | 97% | 1005.8 hPa | 0 mm | - | 94 W/m² | - |
| 1777576569 | 8.89° C | 97% | 1005.6 hPa | 0 mm | - | 75 W/m² | - |
| 1777576265 | 8.89° C | 97% | 1006 hPa | 0 mm | - | 40 W/m² | - |
| 1777575962 | 8.89° C | 97% | 1006.2 hPa | 0 mm | - | 53 W/m² | - |
| 1777575657 | 8.89° C | 97% | 1005.8 hPa | 0 mm | - | 61 W/m² | - |
| 1777575354 | 8.89° C | 97% | 1005.8 hPa | 0 mm | - | 73 W/m² | - |
| 1777575050 | 8.89° C | 97% | 1006 hPa | 0 mm | - | 74 W/m² | - |
| 1777574746 | 8.89° C | 97% | 1005.8 hPa | 0 mm | - | 89 W/m² | - |
| 1777574444 | 8.89° C | 97% | 1005.8 hPa | 0 mm | - | 94 W/m² | - |
| 1777574139 | 8.89° C | 97% | 1005.8 hPa | 0 mm | - | 100 W/m² | - |
| 1777573834 | 8.89° C | 97% | 1006 hPa | 0 mm | - | 95 W/m² | - |
| 1777573529 | 8.89° C | 97% | 1006.1 hPa | 0 mm | - | 94 W/m² | - |
| 1777573226 | 8.89° C | 97% | 1005.9 hPa | 0 mm | - | 95 W/m² | - |
| 1777572922 | 8.89° C | 97% | 1006.1 hPa | 0 mm | - | 93 W/m² | - |
| 1777572618 | 8.89° C | 97% | 1006.2 hPa | 0 mm | - | 95 W/m² | - |
| 1777572312 | 8.89° C | 97% | 1006.3 hPa | 0 mm | - | 91 W/m² | - |
| 1777572010 | 8.89° C | 97% | 1006.3 hPa | 0 mm | - | 116 W/m² | - |
| 1777571709 | 8.89° C | 97% | 1006.2 hPa | 0 mm | - | 127 W/m² | - |
| 1777571407 | 8.33° C | 97% | 1006.3 hPa | 0 mm | - | 133 W/m² | - |
| 1777571103 | 8.33° C | 97% | 1006.4 hPa | 0 mm | - | 134 W/m² | - |
| 1777570799 | 8.33° C | 97% | 1006.3 hPa | 0 mm | - | 145 W/m² | - |
| 1777570495 | 8.33° C | 97% | 1006.7 hPa | 0 mm | - | 124 W/m² | - |
| 1777570191 | 8.33° C | 97% | 1006.8 hPa | 0 mm | - | 77 W/m² | - |
| 1777569887 | 8.33° C | 97% | 1006.7 hPa | 0 mm | - | 106 W/m² | - |
* Rain latest hour (hover to see other rain measurements)
** Current wind speed in m/s (hover to see current wind gust speed)